FW4012 Weather Reports


Display with metric or nautical units.
time (UTC)temp
F
wind
direction
speed
MPH
gust
MPH
rain 1hr
in
rain 24hr
in
rain mn
in
humidity
%
barometer
mb
20260904205739 69 142 0.0 2.0 0.00 0.00 0.00 82 1017.5
20260904205238 69 142 0.0 2.0 0.00 0.00 0.00 82 1017.5
20260904204727 69 142 0.0 2.0 0.00 0.00 0.00 82 1017.4
20260904204234 69 142 0.0 0.0 0.00 0.00 0.00 82 1017.5
20260904203726 70 142 0.0 1.0 0.00 0.00 0.00 82 1017.5
20260904203307 70 142 0.0 1.0 0.00 0.00 0.00 82 1017.5
20260904202734 70 142 0.0 0.0 0.00 0.00 0.00 82 1017.5
20260904202244 70 142 0.0 1.0 0.00 0.00 0.00 81 1017.6
20260904201752 70 142 0.0 1.0 0.00 0.00 0.00 81 1017.6
20260904201246 70 142 0.0 0.0 0.00 0.00 0.00 81 1017.5
20260904200753 71 142 0.0 0.0 0.00 0.00 0.00 81 1017.6
20260904200224 71 142 0.0 0.0 0.00 0.00 0.00 81 1017.5
20260904195745 71 142 0.0 0.0 0.00 0.00 0.00 80 1017.6
20260904195238 71 142 0.0 0.0 0.00 0.00 0.00 80 1017.5
20260904194747 71 142 0.0 1.0 0.00 0.00 0.00 80 1017.4
20260904194239 71 142 0.0 1.0 0.00 0.00 0.00 80 1017.4
20260904193726 71 142 0.0 1.0 0.00 0.00 0.00 79 1017.4
20260904193237 72 142 0.0 7.0 0.00 0.00 0.00 79 1017.4
20260904192737 72 142 2.0 7.0 0.00 0.00 0.00 79 1017.3
20260904192227 72 234 0.0 0.0 0.00 0.00 0.00 79 1017.2
20260904191747 73 234 0.0 0.0 0.00 0.00 0.00 78 1017.2
20260904191239 73 234 0.0 0.0 0.00 0.00 0.00 78 1017.1
20260904190746 73 234 0.0 0.0 0.00 0.00 0.00 78 1017.0
20260904190245 73 234 0.0 0.0 0.00 0.00 0.00 78 1016.9
20260904185751 74 234 0.0 0.0 0.00 0.00 0.00 77 1017.0
20260904185224 74 234 0.0 0.0 0.00 0.00 0.00 77 1017.0
20260904184742 75 234 0.0 0.0 0.00 0.00 0.00 76 1017.0
20260904184252 75 234 0.0 0.0 0.00 0.00 0.00 75 1017.0
20260904183732 75 234 0.0 0.0 0.00 0.00 0.00 75 1016.8
20260904183239 76 234 0.0 0.0 0.00 0.00 0.00 74 1016.9
20260904182739 76 234 0.0 1.0 0.00 0.00 0.00 74 1016.8
20260904182246 77 234 0.0 1.0 0.00 0.00 0.00 73 1016.8
20260904181741 78 234 0.0 0.0 0.00 0.00 0.00 72 1016.8
20260904181228 78 234 0.0 1.0 0.00 0.00 0.00 72 1016.7
20260904180750 79 234 0.0 1.0 0.00 0.00 0.00 70 1016.7
20260904180240 80 234 0.0 0.0 0.00 0.00 0.00 69 1016.7
20260904175747 81 234 0.0 0.0 0.00 0.00 0.00 67 1016.6
20260904175237 82 234 0.0 0.0 0.00 0.00 0.00 66 1016.6
20260904174749 82 234 0.0 0.0 0.00 0.00 0.00 62 1016.7
20260904174244 83 234 0.0 1.0 0.00 0.00 0.00 60 1016.6
20260904173742 84 234 0.0 2.0 0.00 0.00 0.00 59 1016.6
20260904173247 85 234 2.0 2.0 0.00 0.00 0.00 58 1016.6
20260904172739 86 234 2.0 2.0 0.00 0.00 0.00 57 1016.5
20260904172248 87 217 0.0 1.0 0.00 0.00 0.00 57 1016.4
20260904171740 88 217 0.0 2.0 0.00 0.00 0.00 57 1016.4
20260904171249 89 217 1.0 3.0 0.00 0.00 0.00 54 1016.5
20260904170806 89 217 0.0 3.0 0.00 0.00 0.00 51 1016.4
20260904170241 90 217 1.0 3.0 0.00 0.00 0.00 51 1016.6
20260904165745 90 217 0.0 3.0 0.00 0.00 0.00 49 1016.6
20260904165243 90 217 2.0 3.0 0.00 0.00 0.00 47 1016.6
20260904164733 90 217 2.0 3.0 0.00 0.00 0.00 47 1016.5
20260904164226 90 234 1.0 3.0 0.00 0.00 0.00 47 1016.6
20260904163747 90 234 2.0 3.0 0.00 0.00 0.00 46 1016.6
20260904163242 90 242 2.0 3.0 0.00 0.00 0.00 46 1016.7
20260904162812 91 238 1.0 3.0 0.00 0.00 0.00 45 1016.6
20260904162241 90 229 1.0 4.0 0.00 0.00 0.00 45 1016.7
20260904161740 90 229 2.0 6.0 0.00 0.00 0.00 46 1016.6
20260904161249 90 252 3.0 6.0 0.00 0.00 0.00 45 1016.8
20260904160734 91 264 2.0 5.0 0.00 0.00 0.00 45 1016.7
20260904160223 91 250 3.0 4.0 0.00 0.00 0.00 45 1016.8
20260904155748 90 273 2.0 5.0 0.00 0.00 0.00 45 1016.8
20260904155237 90 241 2.0 5.0 0.00 0.00 0.00 44 1016.9
20260904154728 90 227 1.0 4.0 0.00 0.00 0.00 45 1017.4
20260904154308 90 310 2.0 8.0 0.00 0.00 0.00 45 1016.9
20260904153742 90 234 3.0 8.0 0.00 0.00 0.00 43 1017.0
20260904153242 90 177 3.0 6.0 0.00 0.00 0.00 44 1017.0
20260904152748 90 233 4.0 7.0 0.00 0.00 0.00 44 1017.0
20260904152241 90 203 4.0 9.0 0.00 0.00 0.00 44 1017.0
20260904151745 90 250 4.0 9.0 0.00 0.00 0.00 45 1017.0
20260904151239 90 250 1.0 4.0 0.00 0.00 0.00 44 1017.1
20260904150748 90 334 3.0 4.0 0.00 0.00 0.00 44 1017.1
20260904150238 90 250 2.0 5.0 0.00 0.00 0.00 46 1017.1
20260904145730 90 273 2.0 4.0 0.00 0.00 0.00 45 1017.1
20260904145243 89 164 1.0 7.0 0.00 0.00 0.00 47 1017.2
20260904144813 89 211 2.0 9.0 0.00 0.00 0.00 46 1017.2
20260904144238 89 220 5.0 10.0 0.00 0.00 0.00 45 1017.2
20260904143750 89 234 3.0 6.0 0.00 0.00 0.00 45 1017.3
20260904143243 89 253 3.0 7.0 0.00 0.00 0.00 45 1017.2
20260904142742 90 236 3.0 8.0 0.00 0.00 0.00 46 1017.2
20260904142230 90 252 4.0 8.0 0.00 0.00 0.00 46 1017.4
20260904141741 89 265 1.0 7.0 0.00 0.00 0.00 47 1017.5
20260904141247 89 200 3.0 7.0 0.00 0.00 0.00 47 1017.4
20260904140737 89 275 4.0 9.0 0.00 0.00 0.00 46 1017.4
20260904140233 89 263 6.0 9.0 0.00 0.00 0.00 46 1017.4
20260904135733 89 224 4.0 7.0 0.00 0.00 0.00 47 1017.5
20260904135300 89 211 2.0 5.0 0.00 0.00 0.00 49 1017.4
20260904134735 88 350 0.0 6.0 0.00 0.00 0.00 52 1017.6
20260904134225 88 242 3.0 9.0 0.00 0.00 0.00 48 1017.7
20260904133723 88 121 3.0 10.0 0.00 0.00 0.00 48 1017.6
20260904133246 89 216 4.0 11.0 0.00 0.00 0.00 47 1017.7
20260904132728 89 146 6.0 11.0 0.00 0.00 0.00 47 1017.7
20260904132305 89 192 5.0 9.0 0.00 0.00 0.00 48 1017.7
20260904131748 88 81 2.0 4.0 0.00 0.00 0.00 50 1017.8
20260904131242 89 173 1.0 9.0 0.00 0.00 0.00 47 1017.7
20260904130748 89 181 3.0 10.0 0.00 0.00 0.00 47 1017.8
20260904130240 89 163 5.0 10.0 0.00 0.00 0.00 47 1017.9
20260904125744 88 214 4.0 11.0 0.00 0.00 0.00 47 1017.9
20260904125223 88 155 7.0 11.0 0.00 0.00 0.00 47 1017.9
20260904124759 88 273 2.0 7.0 0.00 0.00 0.00 49 1018.1
20260904124230 88 178 4.0 7.0 0.00 0.00 0.00 48 1018.2
20260904123728 88 134 2.0 7.0 0.00 0.00 0.00 48 1018.1
20260904123235 88 185 3.0 8.0 0.00 0.00 0.00 51 1018.2
20260904122727 88 239 3.0 9.0 0.00 0.00 0.00 48 1018.2
20260904122249 88 240 3.0 9.0 0.00 0.00 0.00 48 1018.2
20260904121742 87 208 4.0 8.0 0.00 0.00 0.00 49 1018.3
20260904121247 87 193 3.0 9.0 0.00 0.00 0.00 50 1018.3
20260904120742 87 134 5.0 10.0 0.00 0.00 0.00 50 1018.3
20260904120225 87 194 4.0 11.0 0.00 0.00 0.00 51 1018.5
20260904115807 87 134 4.0 9.0 0.00 0.00 0.00 51 1018.5
20260904115234 87 150 4.0 9.0 0.00 0.00 0.00 52 1018.5
20260904114725 87 267 2.0 7.0 0.00 0.00 0.00 52 1018.5
20260904114248 87 190 2.0 7.0 0.00 0.00 0.00 52 1018.5
20260904113737 86 204 2.0 8.0 0.00 0.00 0.00 51 1018.5
20260904113230 86 161 2.0 8.0 0.00 0.00 0.00 49 1018.6
20260904112751 85 126 4.0 8.0 0.00 0.00 0.00 50 1018.6
20260904112238 86 116 4.0 8.0 0.00 0.00 0.00 48 1018.6
20260904111737 86 196 4.0 7.0 0.00 0.00 0.00 49 1018.6
20260904111229 86 211 3.0 6.0 0.00 0.00 0.00 52 1018.7
20260904110743 85 84 2.0 6.0 0.00 0.00 0.00 50 1018.7
20260904110252 85 152 2.0 8.0 0.00 0.00 0.00 51 1018.8
20260904105802 85 110 4.0 8.0 0.00 0.00 0.00 54 1018.7
20260904105305 85 119 3.0 7.0 0.00 0.00 0.00 53 1018.8
20260904104724 84 69 3.0 7.0 0.00 0.00 0.00 51 1018.9
20260904104238 84 102 3.0 7.0 0.00 0.00 0.00 51 1019.0
20260904103732 85 148 3.0 6.0 0.00 0.00 0.00 54 1019.0
20260904103301 85 150 3.0 6.0 0.00 0.00 0.00 52 1019.1
20260904102731 84 76 2.0 3.0 0.00 0.00 0.00 50 1019.1
20260904102228 84 179 0.0 5.0 0.00 0.00 0.00 49 1019.3
20260904101735 84 217 3.0 5.0 0.00 0.00 0.00 51 1019.3
20260904101224 84 259 2.0 7.0 0.00 0.00 0.00 50 1019.3
20260904100747 84 153 3.0 7.0 0.00 0.00 0.00 50 1019.4
20260904100234 85 140 4.0 7.0 0.00 0.00 0.00 48 1019.4
20260904095728 84 207 3.0 5.0 0.00 0.00 0.00 50 1019.6
20260904095229 83 5 2.0 7.0 0.00 0.00 0.00 51 1019.5
20260904094735 84 113 4.0 7.0 0.00 0.00 0.00 48 1019.6
20260904094226 85 148 3.0 5.0 0.00 0.00 0.00 50 1019.6
20260904093750 84 196 3.0 5.0 0.00 0.00 0.00 53 1019.7
20260904093258 83 154 4.0 6.0 0.00 0.00 0.00 53 1019.8
20260904092725 83 109 2.0 4.0 0.00 0.00 0.00 51 1019.8
20260904092245 83 338 0.0 3.0 0.00 0.00 0.00 50 1019.9
20260904091723 82 338 1.0 4.0 0.00 0.00 0.00 54 1020.0
20260904091238 81 47 1.0 4.0 0.00 0.00 0.00 50 1019.8
20260904090727 81 213 2.0 4.0 0.00 0.00 0.00 51 1019.8
20260904090247 81 172 1.0 4.0 0.00 0.00 0.00 51 1019.7
20260904085739 80 110 2.0 6.0 0.00 0.00 0.00 51 1019.8
20260904085239 80 114 3.0 6.0 0.00 0.00 0.00 51 1019.8
20260904084738 80 5 1.0 3.0 0.00 0.00 0.00 51 1019.7
20260904084237 80 78 1.0 4.0 0.00 0.00 0.00 52 1019.7
20260904083745 80 28 2.0 4.0 0.00 0.00 0.00 52 1019.7
20260904083242 80 121 3.0 4.0 0.00 0.00 0.00 53 1019.6
20260904082743 79 43 2.0 3.0 0.00 0.00 0.00 55 1019.6
20260904082235 79 270 1.0 3.0 0.00 0.00 0.00 57 1019.6
20260904081731 78 270 1.0 3.0 0.00 0.00 0.00 57 1019.7
20260904081233 78 271 1.0 3.0 0.00 0.00 0.00 57 1019.6
20260904080727 78 19 2.0 3.0 0.00 0.00 0.00 59 1019.5
20260904080307 77 316 1.0 3.0 0.00 0.00 0.00 59 1019.5
20260904075734 77 316 2.0 3.0 0.00 0.00 0.00 60 1019.5
20260904075243 77 316 1.0 3.0 0.00 0.00 0.00 61 1019.5
20260904074723 76 316 1.0 5.0 0.00 0.00 0.00 62 1019.6
20260904074242 76 324 3.0 4.0 0.00 0.00 0.00 63 1019.6
20260904073747 76 326 1.0 4.0 0.00 0.00 0.00 62 1019.6
20260904073237 76 326 2.0 5.0 0.00 0.00 0.00 63 1019.5
20260904072746 75 323 4.0 5.0 0.00 0.00 0.00 66 1019.6
20260904072236 75 350 2.0 3.0 0.00 0.00 0.00 67 1019.5
20260904071727 75 348 1.0 3.0 0.00 0.00 0.00 67 1019.4
20260904071247 74 18 2.0 3.0 0.00 0.00 0.00 69 1019.3
20260904070727 74 24 2.0 4.0 0.00 0.00 0.00 67 1019.3
20260904070228 73 318 1.0 3.0 0.00 0.00 0.00 72 1019.2
20260904065750 73 306 0.0 2.0 0.00 0.00 0.00 74 1019.3
20260904065240 72 306 1.0 3.0 0.00 0.00 0.00 74 1019.3
20260904064725 72 306 1.0 4.0 0.00 0.00 0.00 74 1019.4
20260904064230 71 301 2.0 4.0 0.00 0.00 0.00 75 1019.3
20260904063740 71 333 3.0 4.0 0.00 0.00 0.00 77 1019.2
20260904063247 70 319 2.0 3.0 0.00 0.00 0.00 79 1019.2
20260904062810 70 319 2.0 3.0 0.00 0.00 0.00 77 1019.1
20260904062240 70 319 0.0 2.0 0.00 0.00 0.00 78 1019.2
20260904061725 69 319 1.0 4.0 0.00 0.00 0.00 79 1019.1
20260904061234 68 332 2.0 5.0 0.00 0.00 0.00 81 1019.0
20260904060733 67 326 3.0 4.0 0.00 0.00 0.00 82 1019.0
20260904060259 66 329 3.0 4.0 0.00 0.00 0.00 84 1019.1
20260904055746 65 328 1.0 3.0 0.00 0.00 0.00 84 1019.1
20260904055242 65 328 1.0 2.0 0.00 0.00 0.00 85 1019.1
20260904054747 64 328 0.0 4.0 0.00 0.00 0.00 86 1019.0
20260904054241 63 328 2.0 4.0 0.00 0.00 0.00 86 1019.1
20260904053740 63 325 3.0 3.0 0.00 0.00 0.00 87 1019.1
20260904053250 62 311 1.0 3.0 0.00 0.00 0.00 88 1019.0
20260904052739 62 311 1.0 3.0 0.00 0.00 0.00 88 1019.1
20260904052248 62 315 2.0 4.0 0.00 0.00 0.00 88 1019.0
20260904051723 62 323 2.0 3.0 0.00 0.00 0.00 88 1018.8
20260904051239 61 323 2.0 3.0 0.00 0.00 0.00 88 1018.9
20260904050737 61 323 2.0 3.0 0.00 0.00 0.00 89 1018.9
20260904050232 61 323 1.0 3.0 0.00 0.00 0.00 88 1018.8
20260904045740 61 323 1.0 3.0 0.00 0.00 0.00 89 1018.8
20260904045240 61 323 1.0 3.0 0.00 0.00 0.00 88 1018.8
20260904044746 61 323 1.0 2.0 0.00 0.00 0.00 88 1018.6
20260904044226 61 323 1.0 2.0 0.00 0.00 0.00 88 1018.7
20260904043734 61 323 0.0 1.0 0.00 0.00 0.00 88 1018.6
20260904043224 61 323 0.0 1.0 0.00 0.00 0.00 88 1018.6
20260904042730 61 323 0.0 4.0 0.00 0.00 0.00 88 1018.6
20260904042223 61 323 2.0 4.0 0.00 0.00 0.00 88 1018.7
20260904041742 61 323 2.0 3.0 0.00 0.00 0.00 88 1018.7
20260904041237 61 319 1.0 4.0 0.00 0.00 0.00 88 1018.7
20260904040729 61 319 2.0 4.0 0.00 0.00 0.00 89 1018.7
20260904040236 61 323 3.0 4.0 0.00 0.00 0.00 89 1018.7
20260904035735 61 329 0.0 0.0 0.00 0.00 0.00 89 1018.7
20260904035235 61 329 0.0 0.0 0.00 0.00 0.00 89 1018.7
20260904034734 61 329 0.0 0.0 0.00 0.00 0.00 89 1018.7
20260904034302 61 329 0.0 0.0 0.00 0.00 0.00 89 1018.8
20260904033729 61 329 0.0 0.0 0.00 0.00 0.00 89 1018.8
20260904033309 61 329 0.0 0.0 0.00 0.00 0.00 89 1018.8
20260904032740 61 329 0.0 0.0 0.00 0.00 0.00 88 1018.9
20260904032250 61 329 0.0 0.0 0.00 0.00 0.00 88 1018.8
20260904031736 61 329 0.0 0.0 0.00 0.00 0.00 88 1018.9
20260904031223 61 329 0.0 0.0 0.00 0.00 0.00 88 1018.9
20260904030744 61 329 0.0 0.0 0.00 0.00 0.00 88 1019.0
20260904030251 61 329 0.0 0.0 0.00 0.00 0.00 88 1018.9
20260904025740 61 329 0.0 1.0 0.00 0.00 0.00 88 1018.9
20260904025251 61 329 0.0 1.0 0.00 0.00 0.00 88 1018.9
20260904024801 61 329 0.0 1.0 0.00 0.00 0.00 88 1018.9
20260904024250 61 329 0.0 1.0 0.00 0.00 0.00 88 1018.9
20260904023739 62 329 0.0 1.0 0.00 0.00 0.00 88 1018.9
20260904023246 62 329 0.0 1.0 0.00 0.00 0.00 88 1018.9
20260904022737 62 329 0.0 0.0 0.00 0.00 0.00 87 1018.9
20260904022229 62 329 0.0 1.0 0.00 0.00 0.00 87 1018.9
20260904021730 62 329 0.0 1.0 0.00 0.00 0.00 87 1018.9
20260904021244 62 329 0.0 1.0 0.00 0.00 0.00 87 1018.8
20260904020737 62 329 0.0 1.0 0.00 0.00 0.00 87 1018.7
20260904020237 62 329 0.0 2.0 0.00 0.00 0.00 87 1018.7
20260904015749 62 329 0.0 3.0 0.00 0.00 0.00 87 1018.6
20260904015240 62 329 1.0 3.0 0.00 0.00 0.00 87 1018.7
20260904014739 62 329 1.0 2.0 0.00 0.00 0.00 87 1018.6
20260904014239 62 329 0.0 0.0 0.00 0.00 0.00 87 1018.6
20260904013745 62 329 0.0 0.0 0.00 0.00 0.00 87 1018.5
20260904013240 63 329 0.0 0.0 0.00 0.00 0.00 87 1018.6
20260904012725 63 329 0.0 0.0 0.00 0.00 0.00 87 1018.6
20260904012235 63 329 0.0 0.0 0.00 0.00 0.00 87 1018.6
20260904011723 63 329 0.0 0.0 0.00 0.00 0.00 87 1018.6
20260904011311 63 329 0.0 0.0 0.00 0.00 0.00 87 1018.6
20260904010731 63 330 0.0 0.0 0.00 0.00 0.00 87 1018.6
20260904010223 63 330 0.0 0.0 0.00 0.00 0.00 87 1018.7
20260904005746 63 330 0.0 0.0 0.00 0.00 0.00 86 1018.6
20260904005306 63 330 0.0 0.0 0.00 0.00 0.00 86 1018.6
20260904004723 63 330 0.0 0.0 0.00 0.00 0.00 86 1018.7
20260904004242 64 325 0.0 0.0 0.00 0.00 0.00 86 1018.7
20260904003741 64 326 0.0 0.0 0.00 0.00 0.00 86 1018.6
20260904003250 64 325 0.0 0.0 0.00 0.00 0.00 86 1018.6
20260904002738 64 326 0.0 0.0 0.00 0.00 0.00 86 1018.8
20260904002238 64 326 0.0 0.0 0.00 0.00 0.00 86 1018.7
20260904001747 64 325 0.0 0.0 0.00 0.00 0.00 86 1018.8
20260904001253 64 326 0.0 0.0 0.00 0.00 0.00 86 1018.9
20260904000724 64 325 0.0 0.0 0.00 0.00 0.00 86 1018.9
20260904000226 64 326 0.0 0.0 0.00 0.00 0.00 86 1018.8
20260903235748 64 325 0.0 0.0 0.00 0.00 0.00 86 1018.9
20260903235250 64 325 0.0 0.0 0.00 0.00 0.00 86 1018.9
20260903234724 64 325 0.0 0.0 0.00 0.00 0.00 86 1019.0
20260903234236 64 325 0.0 0.0 0.00 0.00 0.00 85 1019.1
20260903233724 64 325 0.0 0.0 0.00 0.00 0.00 85 1019.1
20260903233237 64 325 0.0 0.0 0.00 0.00 0.00 85 1019.1
20260903232743 65 325 0.0 0.0 0.00 0.00 0.00 85 1019.1
20260903232237 65 325 0.0 1.0 0.00 0.00 0.00 85 1019.1
20260903231743 65 325 0.0 2.0 0.00 0.00 0.00 85 1019.0
20260903231231 65 325 0.0 2.0 0.00 0.00 0.00 85 1018.9
20260903230725 65 325 0.0 2.0 0.00 0.00 0.00 85 1019.0
20260903230312 65 325 0.0 2.0 0.00 0.00 0.00 85 1018.9
20260903225740 65 325 1.0 3.0 0.00 0.00 0.00 85 1019.0
20260903225247 65 325 1.0 3.0 0.00 0.00 0.00 85 1018.9
20260903224736 65 326 2.0 3.0 0.00 0.00 0.00 84 1018.9
20260903224226 65 326 2.0 3.0 0.00 0.00 0.00 84 1018.9
20260903223805 65 325 0.0 0.0 0.00 0.00 0.00 84 1018.8
20260903223227 65 325 0.0 2.0 0.00 0.00 0.00 84 1018.8
20260903222737 65 325 0.0 2.0 0.00 0.00 0.00 84 1018.9
20260903222244 66 325 1.0 2.0 0.00 0.00 0.00 84 1018.8
20260903221724 66 325 0.0 1.0 0.00 0.00 0.00 84 1018.9
20260903221237 66 326 0.0 2.0 0.00 0.00 0.00 83 1019.1
20260903220738 66 326 1.0 2.0 0.00 0.00 0.00 83 1019.0
20260903220233 66 290 0.0 3.0 0.00 0.00 0.00 83 1019.1
20260903215730 66 290 1.0 3.0 0.00 0.00 0.00 83 1019.0
20260903215241 66 304 1.0 3.0 0.00 0.00 0.00 83 1019.0
20260903214750 66 329 0.0 0.0 0.00 0.00 0.00 83 1019.1
20260903214239 66 329 0.0 0.0 0.00 0.00 0.00 83 1019.0
20260903213727 66 329 0.0 0.0 0.00 0.00 0.00 82 1018.9
20260903213250 66 329 0.0 0.0 0.00 0.00 0.00 82 1018.9
20260903212723 67 329 0.0 1.0 0.00 0.00 0.00 82 1018.9
20260903212241 67 329 0.0 2.0 0.00 0.00 0.00 82 1018.9
20260903211750 67 329 0.0 3.0 0.00 0.00 0.00 82 1018.9
20260903211225 67 329 2.0 3.0 0.00 0.00 0.00 82 1018.9
20260903210758 67 329 2.0 3.0 0.00 0.00 0.00 82 1018.9
20260903210230 67 324 2.0 3.0 0.00 0.00 0.00 82 1018.9